| time (UTC) | temp F | wind direction | speed MPH | gust MPH | rain 1hr in | rain 24hr in | rain mn in | humidity % | barometer mb |
| 20260906030104 | 65 | 77 | 2.0 | 6.0 | 0.00 | 0.00 | 0.00 | 79 | 1022.3 |
| 20260906025104 | 65 | 77 | 2.0 | 6.0 | 0.00 | 0.00 | 0.00 | 79 | 1022.2 |
| 20260906024604 | 64 | 77 | 2.0 | 6.0 | 0.00 | 0.00 | 0.00 | 79 | 1022.2 |
| 20260906024104 | 64 | 77 | 2.0 | 6.0 | 0.00 | 0.00 | 0.00 | 80 | 1022.1 |
| 20260906023103 | 64 | 77 | 2.0 | 6.0 | 0.00 | 0.00 | 0.00 | 80 | 1022.0 |
| 20260906022604 | 64 | 77 | 2.0 | 6.0 | 0.00 | 0.00 | 0.00 | 81 | 1021.9 |
| 20260906022103 | 65 | 77 | 2.0 | 6.0 | 0.00 | 0.00 | 0.00 | 80 | 1021.9 |
| 20260906021603 | 65 | 77 | 2.0 | 6.0 | 0.00 | 0.00 | 0.00 | 80 | 1021.8 |
| 20260906020603 | 64 | 77 | 2.0 | 6.0 | 0.00 | 0.00 | 0.00 | 82 | 1021.7 |
| 20260906015603 | 64 | 77 | 2.0 | 6.0 | 0.00 | 0.00 | 0.00 | 82 | 1021.7 |
| 20260906015104 | 65 | 77 | 2.0 | 6.0 | 0.00 | 0.00 | 0.00 | 83 | 1021.6 |
| 20260906014604 | 65 | 77 | 2.0 | 6.0 | 0.00 | 0.00 | 0.00 | 83 | 1021.6 |
| 20260906014103 | 66 | 77 | 2.0 | 6.0 | 0.00 | 0.00 | 0.00 | 82 | 1021.6 |
| 20260906013103 | 67 | 77 | 2.0 | 6.0 | 0.00 | 0.00 | 0.00 | 79 | 1021.6 |
| 20260906012604 | 68 | 77 | 2.0 | 6.0 | 0.00 | 0.00 | 0.00 | 77 | 1021.6 |
| 20260906012103 | 69 | 77 | 2.0 | 6.0 | 0.00 | 0.00 | 0.00 | 73 | 1021.7 |
| 20260906011604 | 70 | 77 | 2.0 | 6.0 | 0.00 | 0.00 | 0.00 | 73 | 1021.7 |
| 20260906011104 | 70 | 77 | 2.0 | 6.0 | 0.00 | 0.00 | 0.00 | 71 | 1021.5 |
| 20260906010604 | 71 | 77 | 2.0 | 6.0 | 0.00 | 0.00 | 0.00 | 69 | 1021.5 |
| 20260906005604 | 70 | 77 | 2.0 | 6.0 | 0.00 | 0.00 | 0.00 | 69 | 1021.5 |
| 20260906005104 | 70 | 77 | 2.0 | 6.0 | 0.00 | 0.00 | 0.00 | 70 | 1021.5 |
| 20260906004604 | 70 | 77 | 2.0 | 6.0 | 0.00 | 0.00 | 0.00 | 70 | 1021.5 |
| 20260906003604 | 70 | 77 | 2.0 | 6.0 | 0.00 | 0.00 | 0.00 | 71 | 1021.4 |
| 20260906003103 | 71 | 77 | 2.0 | 6.0 | 0.00 | 0.00 | 0.00 | 68 | 1021.4 |
| 20260906002604 | 71 | 77 | 2.0 | 6.0 | 0.00 | 0.00 | 0.00 | 67 | 1021.5 |
| 20260906002104 | 71 | 77 | 2.0 | 6.0 | 0.00 | 0.00 | 0.00 | 66 | 1021.4 |
| 20260906001604 | 71 | 77 | 2.0 | 6.0 | 0.00 | 0.00 | 0.00 | 64 | 1021.3 |
| 20260906001103 | 71 | 77 | 2.0 | 6.0 | 0.00 | 0.00 | 0.00 | 65 | 1021.2 |
| 20260906000604 | 71 | 77 | 2.0 | 6.0 | 0.00 | 0.00 | 0.00 | 68 | 1021.3 |
| 20260906000104 | 71 | 77 | 2.0 | 6.0 | 0.00 | 0.00 | 0.00 | 71 | 1021.2 |
| 20260905235604 | 71 | 77 | 2.0 | 6.0 | 0.00 | 0.00 | 0.00 | 70 | 1021.2 |
| 20260905235103 | 71 | 77 | 2.0 | 6.0 | 0.00 | 0.00 | 0.00 | 72 | 1021.1 |
| 20260905234604 | 72 | 77 | 2.0 | 6.0 | 0.00 | 0.00 | 0.00 | 71 | 1021.1 |
| 20260905234104 | 73 | 77 | 2.0 | 6.0 | 0.00 | 0.00 | 0.00 | 69 | 1021.1 |
| 20260905233604 | 73 | 77 | 2.0 | 6.0 | 0.00 | 0.00 | 0.00 | 66 | 1021.0 |
| 20260905233104 | 73 | 77 | 2.0 | 6.0 | 0.00 | 0.00 | 0.00 | 65 | 1021.1 |
| 20260905232604 | 73 | 77 | 2.0 | 6.0 | 0.00 | 0.00 | 0.00 | 65 | 1021.0 |
| 20260905232103 | 74 | 77 | 2.0 | 6.0 | 0.00 | 0.00 | 0.00 | 64 | 1020.9 |
| 20260905231603 | 74 | 77 | 2.0 | 6.0 | 0.00 | 0.00 | 0.00 | 66 | 1020.8 |
| 20260905231104 | 74 | 77 | 2.0 | 6.0 | 0.00 | 0.00 | 0.00 | 66 | 1020.8 |
| 20260905230604 | 74 | 77 | 2.0 | 6.0 | 0.00 | 0.00 | 0.00 | 66 | 1020.6 |
| 20260905225604 | 74 | 77 | 2.0 | 6.0 | 0.00 | 0.00 | 0.00 | 65 | 1020.6 |
| 20260905224104 | 74 | 77 | 2.0 | 6.0 | 0.00 | 0.00 | 0.00 | 66 | 1020.6 |
| 20260905223604 | 74 | 77 | 2.0 | 6.0 | 0.00 | 0.00 | 0.00 | 65 | 1020.6 |
| 20260905223103 | 74 | 77 | 2.0 | 6.0 | 0.00 | 0.00 | 0.00 | 65 | 1020.6 |
| 20260905222604 | 74 | 77 | 2.0 | 6.0 | 0.00 | 0.00 | 0.00 | 66 | 1020.5 |
| 20260905222104 | 74 | 77 | 2.0 | 6.0 | 0.00 | 0.00 | 0.00 | 65 | 1020.6 |
| 20260905221604 | 74 | 77 | 2.0 | 6.0 | 0.00 | 0.00 | 0.00 | 65 | 1020.6 |
| 20260905221104 | 75 | 77 | 2.0 | 6.0 | 0.00 | 0.00 | 0.00 | 65 | 1020.5 |
| 20260905220603 | 75 | 77 | 2.0 | 6.0 | 0.00 | 0.00 | 0.00 | 65 | 1020.5 |
| 20260905220104 | 75 | 77 | 2.0 | 6.0 | 0.00 | 0.00 | 0.00 | 64 | 1020.5 |
| 20260905215604 | 76 | 77 | 2.0 | 6.0 | 0.00 | 0.00 | 0.00 | 64 | 1020.4 |
| 20260905215104 | 76 | 77 | 2.0 | 6.0 | 0.00 | 0.00 | 0.00 | 64 | 1020.4 |
| 20260905214603 | 76 | 77 | 2.0 | 6.0 | 0.00 | 0.00 | 0.00 | 62 | 1020.4 |
| 20260905213604 | 76 | 77 | 2.0 | 6.0 | 0.00 | 0.00 | 0.00 | 64 | 1020.5 |
| 20260905213104 | 76 | 77 | 2.0 | 6.0 | 0.00 | 0.00 | 0.00 | 61 | 1020.6 |
| 20260905212604 | 75 | 77 | 2.0 | 6.0 | 0.00 | 0.00 | 0.00 | 63 | 1020.6 |
| 20260905211604 | 75 | 77 | 2.0 | 6.0 | 0.00 | 0.00 | 0.00 | 64 | 1020.7 |
| 20260905211104 | 76 | 77 | 2.0 | 6.0 | 0.00 | 0.00 | 0.00 | 63 | 1020.7 |
| 20260905210604 | 76 | 77 | 2.0 | 6.0 | 0.00 | 0.00 | 0.00 | 63 | 1020.8 |
| 20260905210103 | 76 | 77 | 2.0 | 6.0 | 0.00 | 0.00 | 0.00 | 63 | 1020.8 |
| 20260905205604 | 76 | 77 | 2.0 | 6.0 | 0.00 | 0.00 | 0.00 | 63 | 1020.8 |
| 20260905205103 | 76 | 77 | 2.0 | 6.0 | 0.00 | 0.00 | 0.00 | 64 | 1020.8 |
| 20260905204604 | 76 | 77 | 2.0 | 6.0 | 0.00 | 0.00 | 0.00 | 64 | 1020.9 |
| 20260905204104 | 76 | 77 | 2.0 | 6.0 | 0.00 | 0.00 | 0.00 | 64 | 1021.0 |
| 20260905203604 | 76 | 77 | 2.0 | 6.0 | 0.00 | 0.00 | 0.00 | 64 | 1020.9 |
| 20260905203104 | 76 | 77 | 2.0 | 6.0 | 0.00 | 0.00 | 0.00 | 64 | 1021.1 |
| 20260905202604 | 76 | 77 | 2.0 | 6.0 | 0.00 | 0.00 | 0.00 | 64 | 1021.1 |
| 20260905201604 | 76 | 77 | 2.0 | 6.0 | 0.00 | 0.00 | 0.00 | 64 | 1021.1 |
| 20260905201103 | 76 | 77 | 2.0 | 6.0 | 0.00 | 0.00 | 0.00 | 65 | 1021.2 |
| 20260905200604 | 76 | 77 | 2.0 | 6.0 | 0.00 | 0.00 | 0.00 | 64 | 1021.3 |
| 20260905200104 | 76 | 77 | 2.0 | 6.0 | 0.00 | 0.00 | 0.00 | 65 | 1021.4 |
| 20260905195604 | 76 | 77 | 2.0 | 6.0 | 0.00 | 0.00 | 0.00 | 65 | 1021.5 |
| 20260905195104 | 76 | 77 | 2.0 | 6.0 | 0.00 | 0.00 | 0.00 | 63 | 1021.6 |
| 20260905194603 | 76 | 77 | 2.0 | 6.0 | 0.00 | 0.00 | 0.00 | 65 | 1021.6 |
| 20260905194104 | 76 | 77 | 2.0 | 6.0 | 0.00 | 0.00 | 0.00 | 66 | 1021.5 |
| 20260905193604 | 76 | 77 | 2.0 | 6.0 | 0.00 | 0.00 | 0.00 | 65 | 1021.6 |
| 20260905193104 | 77 | 77 | 2.0 | 6.0 | 0.00 | 0.00 | 0.00 | 62 | 1021.7 |
| 20260905192604 | 77 | 77 | 2.0 | 6.0 | 0.00 | 0.00 | 0.00 | 63 | 1021.7 |
| 20260905192104 | 77 | 77 | 2.0 | 6.0 | 0.00 | 0.00 | 0.00 | 62 | 1021.9 |
| 20260905191604 | 77 | 77 | 2.0 | 6.0 | 0.00 | 0.00 | 0.00 | 63 | 1021.9 |
| 20260905191103 | 77 | 77 | 2.0 | 6.0 | 0.00 | 0.00 | 0.00 | 63 | 1021.9 |
| 20260905190604 | 76 | 77 | 2.0 | 6.0 | 0.00 | 0.00 | 0.00 | 63 | 1021.9 |
| 20260905190104 | 76 | 77 | 2.0 | 6.0 | 0.00 | 0.00 | 0.00 | 64 | 1022.0 |
| 20260905185604 | 76 | 77 | 2.0 | 6.0 | 0.00 | 0.00 | 0.00 | 65 | 1022.0 |
| 20260905185104 | 76 | 77 | 2.0 | 6.0 | 0.00 | 0.00 | 0.00 | 64 | 1022.1 |
| 20260905184603 | 76 | 77 | 2.0 | 6.0 | 0.00 | 0.00 | 0.00 | 65 | 1022.2 |
| 20260905183603 | 76 | 77 | 2.0 | 6.0 | 0.00 | 0.00 | 0.00 | 64 | 1022.3 |
| 20260905182603 | 76 | 77 | 2.0 | 6.0 | 0.00 | 0.00 | 0.00 | 64 | 1022.4 |
| 20260905182103 | 75 | 77 | 2.0 | 6.0 | 0.00 | 0.00 | 0.00 | 65 | 1022.4 |
| 20260905181604 | 76 | 77 | 2.0 | 6.0 | 0.00 | 0.00 | 0.00 | 64 | 1022.5 |
| 20260905181103 | 76 | 77 | 2.0 | 6.0 | 0.00 | 0.00 | 0.00 | 66 | 1022.5 |
| 20260905180604 | 76 | 77 | 2.0 | 6.0 | 0.00 | 0.00 | 0.00 | 64 | 1022.5 |
| 20260905180104 | 77 | 77 | 2.0 | 6.0 | 0.00 | 0.00 | 0.00 | 56 | 1022.7 |
| 20260905175603 | 76 | 77 | 2.0 | 6.0 | 0.00 | 0.00 | 0.00 | 54 | 1022.7 |
| 20260905175104 | 76 | 77 | 2.0 | 6.0 | 0.00 | 0.00 | 0.00 | 56 | 1022.7 |
| 20260905174604 | 76 | 77 | 2.0 | 6.0 | 0.00 | 0.00 | 0.00 | 55 | 1022.7 |
| 20260905174104 | 76 | 77 | 2.0 | 6.0 | 0.00 | 0.00 | 0.00 | 56 | 1022.8 |
| 20260905173604 | 75 | 77 | 2.0 | 6.0 | 0.00 | 0.00 | 0.00 | 57 | 1022.8 |
| 20260905173104 | 75 | 77 | 2.0 | 6.0 | 0.00 | 0.00 | 0.00 | 58 | 1022.8 |
| 20260905172604 | 75 | 77 | 2.0 | 6.0 | 0.00 | 0.00 | 0.00 | 59 | 1022.9 |
| 20260905172103 | 76 | 77 | 2.0 | 6.0 | 0.00 | 0.00 | 0.00 | 57 | 1022.9 |
| 20260905171603 | 76 | 77 | 2.0 | 6.0 | 0.00 | 0.00 | 0.00 | 58 | 1022.9 |
| 20260905171104 | 75 | 77 | 2.0 | 6.0 | 0.00 | 0.00 | 0.00 | 60 | 1022.9 |
| 20260905170604 | 74 | 77 | 2.0 | 6.0 | 0.00 | 0.00 | 0.00 | 63 | 1022.9 |
| 20260905170104 | 74 | 77 | 2.0 | 6.0 | 0.00 | 0.00 | 0.00 | 61 | 1023.0 |
| 20260905165604 | 73 | 77 | 2.0 | 6.0 | 0.00 | 0.00 | 0.00 | 64 | 1023.1 |
| 20260905165104 | 73 | 77 | 2.0 | 6.0 | 0.00 | 0.00 | 0.00 | 66 | 1023.1 |
| 20260905164603 | 72 | 77 | 2.0 | 6.0 | 0.00 | 0.00 | 0.00 | 66 | 1023.1 |
| 20260905164104 | 71 | 77 | 2.0 | 6.0 | 0.00 | 0.00 | 0.00 | 69 | 1023.1 |
| 20260905163104 | 71 | 77 | 2.0 | 6.0 | 0.00 | 0.00 | 0.00 | 70 | 1023.2 |
| 20260905162603 | 71 | 77 | 2.0 | 6.0 | 0.00 | 0.00 | 0.00 | 70 | 1023.2 |
| 20260905162104 | 71 | 77 | 2.0 | 6.0 | 0.00 | 0.00 | 0.00 | 71 | 1023.3 |
| 20260905161604 | 71 | 77 | 2.0 | 6.0 | 0.00 | 0.00 | 0.00 | 72 | 1023.3 |
| 20260905160603 | 71 | 77 | 2.0 | 6.0 | 0.00 | 0.00 | 0.00 | 72 | 1023.4 |
| 20260905155604 | 70 | 77 | 2.0 | 6.0 | 0.00 | 0.00 | 0.00 | 74 | 1023.4 |
| 20260905155103 | 70 | 77 | 2.0 | 6.0 | 0.00 | 0.00 | 0.00 | 74 | 1023.4 |
| 20260905154104 | 69 | 77 | 2.0 | 6.0 | 0.00 | 0.00 | 0.00 | 74 | 1023.5 |
| 20260905153603 | 69 | 77 | 2.0 | 6.0 | 0.00 | 0.00 | 0.00 | 75 | 1023.5 |
| 20260905153104 | 69 | 77 | 2.0 | 6.0 | 0.00 | 0.00 | 0.00 | 74 | 1023.6 |
| 20260905152604 | 68 | 77 | 2.0 | 6.0 | 0.00 | 0.00 | 0.00 | 76 | 1023.5 |
| 20260905152103 | 67 | 77 | 2.0 | 6.0 | 0.00 | 0.00 | 0.00 | 76 | 1023.6 |
| 20260905151604 | 66 | 77 | 2.0 | 6.0 | 0.00 | 0.00 | 0.00 | 78 | 1023.7 |
| 20260905151103 | 66 | 77 | 2.0 | 6.0 | 0.00 | 0.00 | 0.00 | 78 | 1023.8 |
| 20260905150603 | 65 | 77 | 2.0 | 6.0 | 0.00 | 0.00 | 0.00 | 78 | 1023.8 |
| 20260905150104 | 65 | 77 | 2.0 | 6.0 | 0.00 | 0.00 | 0.00 | 80 | 1023.9 |
| 20260905145603 | 64 | 77 | 2.0 | 6.0 | 0.00 | 0.00 | 0.00 | 78 | 1023.9 |
| 20260905145104 | 63 | 77 | 2.0 | 6.0 | 0.00 | 0.00 | 0.00 | 79 | 1023.8 |
| 20260905144604 | 63 | 77 | 2.0 | 6.0 | 0.00 | 0.00 | 0.00 | 81 | 1023.8 |
| 20260905143604 | 62 | 77 | 2.0 | 6.0 | 0.00 | 0.00 | 0.00 | 82 | 1023.7 |
| 20260905143103 | 61 | 77 | 2.0 | 6.0 | 0.00 | 0.00 | 0.00 | 83 | 1023.8 |
| 20260905141603 | 60 | 77 | 2.0 | 6.0 | 0.00 | 0.00 | 0.00 | 85 | 1023.8 |
| 20260905141104 | 60 | 77 | 2.0 | 6.0 | 0.00 | 0.00 | 0.00 | 85 | 1023.7 |
| 20260905140604 | 60 | 77 | 2.0 | 6.0 | 0.00 | 0.00 | 0.00 | 85 | 1023.7 |
| 20260905140104 | 60 | 77 | 2.0 | 6.0 | 0.00 | 0.00 | 0.00 | 86 | 1023.6 |
| 20260905135603 | 60 | 77 | 2.0 | 6.0 | 0.00 | 0.00 | 0.00 | 87 | 1023.6 |
| 20260905135104 | 60 | 77 | 2.0 | 6.0 | 0.00 | 0.00 | 0.00 | 87 | 1023.6 |
| 20260905134603 | 59 | 77 | 2.0 | 6.0 | 0.00 | 0.00 | 0.00 | 87 | 1023.5 |
| 20260905133104 | 59 | 77 | 2.0 | 6.0 | 0.00 | 0.00 | 0.00 | 86 | 1023.4 |
| 20260905132603 | 59 | 77 | 2.0 | 6.0 | 0.00 | 0.00 | 0.00 | 87 | 1023.4 |
| 20260905132104 | 59 | 77 | 2.0 | 6.0 | 0.00 | 0.00 | 0.00 | 87 | 1023.4 |
| 20260905131103 | 59 | 77 | 2.0 | 6.0 | 0.00 | 0.00 | 0.00 | 86 | 1023.4 |
| 20260905130603 | 59 | 77 | 2.0 | 6.0 | 0.00 | 0.00 | 0.00 | 86 | 1023.4 |
| 20260905130104 | 59 | 77 | 2.0 | 6.0 | 0.00 | 0.00 | 0.00 | 86 | 1023.4 |
| 20260905125103 | 59 | 77 | 2.0 | 6.0 | 0.00 | 0.00 | 0.00 | 86 | 1023.3 |
| 20260905124604 | 59 | 77 | 2.0 | 6.0 | 0.00 | 0.00 | 0.00 | 85 | 1023.3 |
| 20260905124103 | 59 | 77 | 2.0 | 6.0 | 0.00 | 0.00 | 0.00 | 85 | 1023.3 |
| 20260905123604 | 59 | 77 | 2.0 | 6.0 | 0.00 | 0.00 | 0.00 | 85 | 1023.3 |
| 20260905123103 | 59 | 77 | 2.0 | 6.0 | 0.00 | 0.00 | 0.00 | 84 | 1023.3 |
| 20260905122103 | 59 | 77 | 2.0 | 6.0 | 0.00 | 0.00 | 0.00 | 84 | 1023.3 |
| 20260905120604 | 59 | 77 | 2.0 | 6.0 | 0.00 | 0.00 | 0.00 | 85 | 1023.1 |
| 20260905120104 | 59 | 77 | 2.0 | 6.0 | 0.00 | 0.00 | 0.00 | 85 | 1023.1 |
| 20260905115604 | 59 | 77 | 2.0 | 6.0 | 0.00 | 0.00 | 0.00 | 85 | 1023.1 |
| 20260905115104 | 59 | 77 | 2.0 | 6.0 | 0.00 | 0.00 | 0.00 | 85 | 1023.1 |
| 20260905114604 | 59 | 77 | 2.0 | 6.0 | 0.00 | 0.00 | 0.00 | 86 | 1023.1 |
| 20260905114104 | 58 | 77 | 2.0 | 6.0 | 0.00 | 0.00 | 0.00 | 87 | 1023.1 |
| 20260905113104 | 58 | 77 | 2.0 | 6.0 | 0.00 | 0.00 | 0.00 | 87 | 1023.1 |
| 20260905112604 | 58 | 77 | 2.0 | 6.0 | 0.00 | 0.00 | 0.00 | 87 | 1023.0 |
| 20260905112103 | 58 | 77 | 2.0 | 6.0 | 0.00 | 0.00 | 0.00 | 88 | 1023.0 |
| 20260905111603 | 58 | 77 | 2.0 | 6.0 | 0.00 | 0.00 | 0.00 | 88 | 1022.9 |
| 20260905111103 | 58 | 77 | 2.0 | 6.0 | 0.00 | 0.00 | 0.00 | 89 | 1022.8 |
| 20260905110603 | 58 | 77 | 2.0 | 6.0 | 0.00 | 0.00 | 0.00 | 89 | 1022.8 |
| 20260905105603 | 58 | 77 | 2.0 | 6.0 | 0.00 | 0.00 | 0.00 | 88 | 1022.7 |
| 20260905105104 | 58 | 77 | 2.0 | 6.0 | 0.00 | 0.00 | 0.00 | 88 | 1022.7 |
| 20260905104603 | 58 | 77 | 2.0 | 6.0 | 0.00 | 0.00 | 0.00 | 87 | 1022.6 |
| 20260905104103 | 58 | 77 | 2.0 | 6.0 | 0.00 | 0.00 | 0.00 | 87 | 1022.7 |
| 20260905103604 | 58 | 77 | 2.0 | 6.0 | 0.00 | 0.00 | 0.00 | 86 | 1022.6 |
| 20260905103104 | 58 | 77 | 2.0 | 6.0 | 0.00 | 0.00 | 0.00 | 86 | 1022.5 |
| 20260905102604 | 58 | 77 | 2.0 | 6.0 | 0.00 | 0.00 | 0.00 | 87 | 1022.4 |
| 20260905102104 | 59 | 77 | 2.0 | 6.0 | 0.00 | 0.00 | 0.00 | 87 | 1022.5 |
| 20260905101103 | 59 | 77 | 2.0 | 6.0 | 0.00 | 0.00 | 0.00 | 87 | 1022.5 |
| 20260905100604 | 59 | 77 | 2.0 | 6.0 | 0.00 | 0.00 | 0.00 | 87 | 1022.5 |
| 20260905100104 | 59 | 77 | 2.0 | 6.0 | 0.00 | 0.00 | 0.00 | 87 | 1022.4 |
| 20260905095104 | 58 | 77 | 2.0 | 6.0 | 0.00 | 0.00 | 0.00 | 87 | 1022.3 |
| 20260905094604 | 58 | 77 | 2.0 | 6.0 | 0.00 | 0.00 | 0.00 | 88 | 1022.3 |
| 20260905093104 | 58 | 77 | 2.0 | 6.0 | 0.00 | 0.00 | 0.00 | 88 | 1022.4 |
| 20260905092604 | 58 | 77 | 2.0 | 6.0 | 0.00 | 0.00 | 0.00 | 88 | 1022.4 |
| 20260905091603 | 58 | 77 | 2.0 | 6.0 | 0.00 | 0.00 | 0.00 | 89 | 1022.5 |
| 20260905091103 | 59 | 77 | 2.0 | 6.0 | 0.00 | 0.00 | 0.00 | 88 | 1022.5 |
| 20260905090603 | 59 | 77 | 2.0 | 6.0 | 0.00 | 0.00 | 0.00 | 87 | 1022.6 |
| 20260905090103 | 59 | 77 | 2.0 | 6.0 | 0.00 | 0.00 | 0.00 | 87 | 1022.8 |
| 20260905085604 | 59 | 77 | 2.0 | 6.0 | 0.00 | 0.00 | 0.00 | 87 | 1022.7 |
| 20260905085103 | 59 | 77 | 2.0 | 6.0 | 0.00 | 0.00 | 0.00 | 87 | 1022.6 |
| 20260905084603 | 59 | 77 | 2.0 | 6.0 | 0.00 | 0.00 | 0.00 | 87 | 1022.6 |
| 20260905084103 | 59 | 77 | 2.0 | 6.0 | 0.00 | 0.00 | 0.00 | 87 | 1022.6 |
| 20260905083603 | 59 | 77 | 2.0 | 6.0 | 0.00 | 0.00 | 0.00 | 87 | 1022.7 |
| 20260905082603 | 59 | 77 | 2.0 | 6.0 | 0.00 | 0.00 | 0.00 | 87 | 1022.7 |
| 20260905082104 | 59 | 77 | 2.0 | 6.0 | 0.00 | 0.00 | 0.00 | 87 | 1022.7 |
| 20260905081604 | 59 | 77 | 2.0 | 6.0 | 0.00 | 0.00 | 0.00 | 87 | 1022.7 |
| 20260905081103 | 59 | 77 | 2.0 | 6.0 | 0.00 | 0.00 | 0.00 | 86 | 1022.8 |
| 20260905080604 | 59 | 77 | 2.0 | 6.0 | 0.00 | 0.00 | 0.00 | 86 | 1022.7 |
| 20260905080104 | 59 | 77 | 2.0 | 6.0 | 0.00 | 0.00 | 0.00 | 86 | 1022.6 |
| 20260905075603 | 59 | 77 | 2.0 | 6.0 | 0.00 | 0.00 | 0.00 | 86 | 1022.7 |
| 20260905075104 | 59 | 77 | 2.0 | 6.0 | 0.00 | 0.00 | 0.00 | 86 | 1022.8 |
| 20260905073604 | 59 | 77 | 2.0 | 6.0 | 0.00 | 0.00 | 0.00 | 87 | 1022.8 |
| 20260905073104 | 59 | 77 | 2.0 | 6.0 | 0.00 | 0.00 | 0.00 | 87 | 1022.8 |
| 20260905072604 | 59 | 77 | 2.0 | 6.0 | 0.00 | 0.00 | 0.00 | 88 | 1022.8 |
| 20260905072104 | 59 | 77 | 2.0 | 6.0 | 0.00 | 0.00 | 0.00 | 88 | 1022.8 |
| 20260905071603 | 59 | 77 | 2.0 | 6.0 | 0.00 | 0.00 | 0.00 | 88 | 1022.8 |
| 20260905070604 | 59 | 77 | 2.0 | 6.0 | 0.00 | 0.00 | 0.00 | 86 | 1022.9 |
| 20260905070104 | 60 | 77 | 2.0 | 6.0 | 0.00 | 0.00 | 0.00 | 86 | 1022.9 |
| 20260905065604 | 60 | 77 | 2.0 | 6.0 | 0.00 | 0.00 | 0.00 | 86 | 1023.0 |
| 20260905065104 | 60 | 77 | 2.0 | 6.0 | 0.00 | 0.00 | 0.00 | 86 | 1023.1 |
| 20260905064603 | 60 | 77 | 2.0 | 6.0 | 0.00 | 0.00 | 0.00 | 86 | 1023.1 |
| 20260905063604 | 60 | 77 | 2.0 | 6.0 | 0.00 | 0.00 | 0.00 | 86 | 1023.2 |
| 20260905062604 | 60 | 77 | 2.0 | 6.0 | 0.00 | 0.00 | 0.00 | 85 | 1023.2 |
| 20260905062103 | 60 | 77 | 2.0 | 6.0 | 0.00 | 0.00 | 0.00 | 86 | 1023.2 |
| 20260905061604 | 60 | 77 | 2.0 | 6.0 | 0.00 | 0.00 | 0.00 | 85 | 1023.2 |
| 20260905061103 | 60 | 77 | 2.0 | 6.0 | 0.00 | 0.00 | 0.00 | 86 | 1023.1 |
| 20260905060603 | 60 | 77 | 2.0 | 6.0 | 0.00 | 0.00 | 0.00 | 85 | 1023.1 |
| 20260905060103 | 61 | 77 | 2.0 | 6.0 | 0.00 | 0.00 | 0.00 | 85 | 1023.1 |
| 20260905055603 | 60 | 77 | 2.0 | 6.0 | 0.00 | 0.00 | 0.00 | 85 | 1023.1 |
| 20260905055104 | 60 | 77 | 2.0 | 6.0 | 0.00 | 0.00 | 0.00 | 86 | 1023.1 |
| 20260905054604 | 61 | 77 | 2.0 | 6.0 | 0.00 | 0.00 | 0.00 | 85 | 1023.1 |
| 20260905054104 | 61 | 77 | 2.0 | 6.0 | 0.00 | 0.00 | 0.00 | 84 | 1023.1 |
| 20260905053604 | 61 | 77 | 2.0 | 6.0 | 0.00 | 0.00 | 0.00 | 84 | 1023.1 |
| 20260905053104 | 61 | 77 | 2.0 | 6.0 | 0.00 | 0.00 | 0.00 | 84 | 1023.0 |
| 20260905052103 | 61 | 77 | 2.0 | 6.0 | 0.00 | 0.00 | 0.00 | 84 | 1023.1 |
| 20260905051604 | 61 | 77 | 2.0 | 6.0 | 0.00 | 0.00 | 0.00 | 83 | 1023.0 |
| 20260905051104 | 61 | 77 | 2.0 | 6.0 | 0.00 | 0.00 | 0.00 | 84 | 1023.0 |
| 20260905050604 | 62 | 77 | 2.0 | 6.0 | 0.00 | 0.00 | 0.00 | 84 | 1023.0 |
| 20260905050104 | 62 | 77 | 2.0 | 6.0 | 0.00 | 0.00 | 0.00 | 84 | 1023.1 |
| 20260905045604 | 61 | 77 | 2.0 | 6.0 | 0.00 | 0.00 | 0.00 | 84 | 1023.1 |
| 20260905045103 | 61 | 77 | 2.0 | 6.0 | 0.00 | 0.00 | 0.00 | 85 | 1023.1 |
| 20260905044603 | 61 | 77 | 2.0 | 6.0 | 0.00 | 0.00 | 0.00 | 85 | 1023.1 |
| 20260905044103 | 61 | 77 | 2.0 | 6.0 | 0.00 | 0.00 | 0.00 | 85 | 1023.1 |
| 20260905043604 | 61 | 77 | 2.0 | 6.0 | 0.00 | 0.00 | 0.00 | 87 | 1023.1 |
| 20260905042603 | 62 | 77 | 2.0 | 6.0 | 0.00 | 0.00 | 0.00 | 86 | 1023.2 |
| 20260905042103 | 62 | 77 | 2.0 | 6.0 | 0.00 | 0.00 | 0.00 | 86 | 1023.2 |
| 20260905041604 | 62 | 77 | 2.0 | 6.0 | 0.00 | 0.00 | 0.00 | 85 | 1023.2 |
| 20260905040604 | 62 | 77 | 2.0 | 6.0 | 0.00 | 0.00 | 0.00 | 86 | 1023.2 |
| 20260905040104 | 62 | 77 | 2.0 | 6.0 | 0.00 | 0.00 | 0.00 | 86 | 1023.2 |
| 20260905035603 | 62 | 77 | 2.0 | 6.0 | 0.00 | 0.00 | 0.00 | 86 | 1023.2 |
| 20260905035104 | 62 | 77 | 2.0 | 6.0 | 0.00 | 0.00 | 0.00 | 86 | 1023.2 |
| 20260905034604 | 62 | 77 | 2.0 | 6.0 | 0.00 | 0.00 | 0.00 | 86 | 1023.2 |
| 20260905034104 | 62 | 77 | 2.0 | 6.0 | 0.00 | 0.00 | 0.00 | 86 | 1023.2 |
| 20260905033604 | 62 | 77 | 2.0 | 6.0 | 0.00 | 0.00 | 0.00 | 87 | 1023.2 |
| 20260905033103 | 62 | 77 | 2.0 | 6.0 | 0.00 | 0.00 | 0.00 | 87 | 1023.1 |
| 20260905032604 | 62 | 77 | 2.0 | 6.0 | 0.00 | 0.00 | 0.00 | 88 | 1023.1 |
| 20260905032103 | 62 | 77 | 2.0 | 6.0 | 0.00 | 0.00 | 0.00 | 88 | 1023.1 |
| 20260905031605 | 61 | 77 | 2.0 | 6.0 | 0.00 | 0.00 | 0.00 | 89 | 1023.2 |
| 20260905031103 | 61 | 77 | 2.0 | 6.0 | 0.00 | 0.00 | 0.00 | 89 | 1023.1 |
| 20260905030603 | 62 | 77 | 2.0 | 6.0 | 0.00 | 0.00 | 0.00 | 89 | 1023.1 |